Regional Weather Roundup
Issued by NWS Midland/Odessa, TX

Home | Current Version | Previous Version | Text Only | Print | Product List | Glossary On
Versions: 1 2 3 4 5 6 7 8 9 10 11 12 13 14 15 16 17 18 19 20 21 22 23 24 25 26 27 28 29 30 31 32 33 34 35 36 37 38 39 40 41 42 43 44 45 46 47 48 49 50
000
ASUS44 KMAF 311601
RWRMAF
MIDLAND AREA WEATHER ROUNDUP
NATIONAL WEATHER SERVICE MIDLAND TX
1100 AM CDT WED AUG 31 2016

...IN SOUTHWEST TEXAS AND SOUTHEAST NEW MEXICO...

CITY           SKY/WX    TMP DP  RH WIND       PRES   REMARKS
ALPINE         CLOUDY    67  63  88 E3        30.29S
ANDREWS        CLOUDY    73  69  87 E6        30.20S
ARTESIA        RAIN      66  66 100 N7        30.22S
BIG SPRING     SUNNY     78  70  75 E6        30.18S
CARLSBAD       CLOUDY    70  66  87 VRB3      30.19S
DRYDEN           N/A     79  68  69 N5        30.10S
FORT STOCKTON    N/A     75  66  73 VRB3      30.17S
GUAD PASS      CLOUDY    64  63  96 NE15      30.30R
HOBBS          CLOUDY    70  70 100 NE8       30.23R
MARFA          CLOUDY   N/A N/A N/A E8        30.26S
MIDLAND AIRPK  CLOUDY    77  67  69 E3        30.18S
MIDLAND INTL   CLOUDY    73  66  78 NE5       30.17S
ODESSA         CLOUDY    72  66  81 E6        30.18S
PECOS          CLOUDY    74  69  82 E7        30.16S
PRESIDIO       PTSUNNY   79  64  59 NE9       30.13S
SEMINOLE       CLOUDY    70  67  90 E8        30.22R
SNYDER           N/A     78  68  72 N6        30.15F
WINK           CLOUDY    76  68  76 SE8       30.15S
$$
...OTHER STATIONS IN TEXAS...

CITY           SKY/WX    TMP DP  RH WIND       PRES   REMARKS
ABILENE        SUNNY     81  71  71 NW6       30.11S
AMARILLO       CLOUDY    70  64  81 W3        30.25R
AUSTIN         MOSUNNY   88  74  63 NE10      29.99R
BROWNSVILLE    LGT RAIN  77  76  96 N9        29.93R
CORPUS CHRISTI PTSUNNY   87  75  67 N8        29.95S
DALLAS FTW     MOSUNNY   89  73  59 N3        30.02R
DEL RIO        MOSUNNY   83  72  69 W3        30.03S
EL PASO        CLOUDY    72  64  76 E7        30.20R
HOUSTON INT    MOSUNNY   89  76  65 VRB6      29.94R HX 100
LUBBOCK        CLOUDY    72  67  84 E6        30.21R
SAN ANGELO     SUNNY     83  68  60 E6        30.10S
SAN ANTONIO    MOSUNNY   86  73  65 N8        30.02R
WACO           SUNNY     88  75  65 NE6       30.00S
WICHITA FALLS  NOT AVBL
$$
...OTHER LOCATIONS IN NEW MEXICO...

CITY           SKY/WX    TMP DP  RH WIND       PRES   REMARKS
ALAMAGORDO     CLOUDY    72  59  64 S6        30.24R
ALBUQUERQUE    MOSUNNY   70  56  61 NW7       30.31S
CANNON AFB     RAIN      63  63 100 E8        30.28S FOG
CLOVIS         CLOUDY    63  61  94 N8        30.28S
HOLLOMAN AFB   CLOUDY    72  62  71 SW3       30.21R
ROSWELL        LGT RAIN  67  64  90 N5        30.22S
RUIDOSO          N/A     59  57  94 NE7       30.40R
SANTA FE       SUNNY     68  51  54 N6        30.37R
TRUTH OR CONSE CLOUDY    72  56  57 NE8       30.26R
TUCUMCARI      LGT RAIN  68  65  90 SE5       30.27R
$$




USA.gov is the U.S. government's official web portal to all federal, state and local government web resources and services.